Regional Weather Roundup
Issued by NWS

Home | Current Version | Previous Version | Graphics & Text | Print | Product List | Glossary On
Versions: 1 2 3 4 5 6 7 8 9 10 11 12 13 14 15 16 17 18 19 20 21 22 23 24 25 26 27 28 29 30 31 32 33 34 35 36 37 38 39 40 41 42 43 44 45 46 47 48 49 50
000
ASUS43 KMPX 020401
RWRMN
WEATHER ROUNDUP FOR MINNESOTA
NATIONAL WEATHER SERVICE TWIN CITIES/CHANHASSEN MN
1100 PM CDT WED JUL 01 2015


NOTE: "FAIR" INDICATES FEW OR NO CLOUDS BELOW 12,000 FEET WITH NO
SIGNIFICANT WEATHER AND/OR OBSTRUCTIONS TO VISIBILITY. N/A MEANS
CURRENT SKY AND/OR WEATHER CONDITIONS ARE NOT AVAILABLE.

MNZ060>063-068>070-020500-
   Twin Cities Metro

CITY           SKY/WX    TMP DP  RH WIND       PRES   REMARKS
TWIN CITIES    PTCLDY    64  53  67 CALM      30.01F
ST PAUL        CLEAR     65  54  67 CALM      30.01S
CRYSTAL        CLEAR     62  51  67 CALM      30.00S
BLAINE         CLEAR     64  52  63 CALM      30.02S
LAKEVILLE      CLEAR     54  54 100 CALM      30.02S
EDEN PRAIRIE   CLEAR     61  51  70 CALM      30.00F
SOUTH ST PAUL  CLEAR     63  55  75 CALM      30.01S
LAKE ELMO      FAIR      61  55  82 CALM      30.02F
$$
MNZ001>005-007-008-013>017-022>024-027-028-020500-
   Northwest Minnesota

CITY           SKY/WX    TMP DP  RH WIND       PRES   REMARKS
BEMIDJI        MOCLDY    68  62  80 SW5       29.99S
HALLOCK        CLEAR     64  59  82 S5        29.93S
ROSEAU         CLEAR     63  57  82 CALM      29.96R
WARROAD        CLEAR     64  61  88 CALM      29.96S
THIEF RVR FALL PTCLDY    64  61  88 S6        29.97S
CROOKSTON      CLEAR     66  61  82 S7        29.97S
FOSSTON        PTCLDY    61  55  82 CALM      30.00S
DETROIT LAKES  CLEAR     64  55  72 S3        30.01S
MOORHEAD       CLEAR     64  57  77 S5        29.99S
PARK RAPIDS    CLOUDY    65  57  75 SW5       30.00S
MAHNOMEN       FAIR      63  58  84 S3        29.99S
$$
MNZ006-009>011-018-025>026-020500-
   North Central Minnesota

CITY           SKY/WX    TMP DP  RH WIND       PRES   REMARKS
BAUDETTE       PTCLDY    63  60  90 CALM      29.96R
FLAG ISLAND    CLEAR     70  61  73 W6        29.94R
INTL FALLS     PTCLDY    57  55  93 SE3       29.97R
WASKISH        CLEAR     61  57  88 S3        29.97S
BIG FORK       PTCLDY    61  57  88 CALM      29.99S
LONGVILLE      CLOUDY    63  61  94 CALM      30.00S FOG
GRAND RAPIDS   PTCLDY    63  57  82 S3        30.00S
CRANE LAKE     CLEAR     54  54 100 CALM      30.00R
ORR            PTCLDY    61  55  82 CALM      29.97S
COOK           MOCLDY    61  57  88 CALM      30.00S
WALKER         CLOUDY    64  61  90 CALM      30.00R
$$
MNZ012-019>021-037-020500-
   Northeast Minnesota

CITY           SKY/WX    TMP DP  RH WIND       PRES   REMARKS
DULUTH         PTCLDY    59  50  72 SE3       30.02R
ELY            CLEAR     57  54  88 CALM      30.01S
HIBBING        PTCLDY    57  56  96 CALM      30.00R
EVELETH        PTCLDY    59  55  88 CALM      30.03R
DULUTH HARBOR  CLEAR     63  55  77 NE7       30.02R
SILVER BAY     CLEAR     52  48  87 CALM      30.01S
GRAND MARAIS     N/A     51  48  89 CALM      30.01S
G MARAIS ARPRT CLEAR     50  39  66 SW3       30.04S
$$
MNZ029>031-032-039>041-046>048-054>057-064-020500-
   West Central Minnesota

CITY           SKY/WX    TMP DP  RH WIND       PRES   REMARKS
FERGUS FALLS   CLEAR     61  55  82 S3        30.00S
WHEATON        CLEAR     55  54  94 SE6       30.01S
MORRIS         CLEAR     61  55  82 SE6       30.00S
ALEXANDRIA     CLEAR     62  55  77 SE6       30.03R
ELBOW LAKE     FAIR      62  55  80 SE6       30.01R
WADENA           N/A     61  55  82 CALM      30.01S
GLENWOOD       CLEAR     59  55  88 CALM      30.03S
APPLETON       CLEAR     61  54  77 SE5       30.00R
BENSON         CLEAR     63  54  72 S3        30.01S
ORTONVILLE     CLEAR     61  54  77 SE6       30.00R
MADISON        CLEAR     57  52  82 E6        30.00S
WILLMAR        FAIR      61  55  82 E3        30.03S
$$
MNZ033>034-036-042>043-049>051-058-059-020500-
   Central Minnesota

CITY           SKY/WX    TMP DP  RH WIND       PRES   REMARKS
ST CLOUD       CLEAR     57  54  89 CALM      30.01S
SAUK CENTRE    FAIR      58  57  95 CALM      30.03R
PAYNESVILLE    CLEAR     53  52  98 CALM      30.03S
AITKIN         PTCLDY    61  54  77 CALM      30.00S
PINE RIVER       N/A     66  57  72 S3        30.03S
BRAINERD       MOCLDY    62  55  77 S5        30.01S
STAPLES        MOCLDY    61  55  82 S3        30.02R
LONG PRAIRIE   FAIR      59  54  82 CALM      30.03R
LITTLE FALLS   CLEAR     59  54  82 CALM      30.02S
LITCHFIELD     CLEAR     61  54  77 CALM      30.02S
BUFFALO        CLEAR     58  51  77 CALM      30.02F
MAPLE LAKE     CLEAR     57  52  84 CALM      30.02F
$$
MNZ037-044-045-052-053-020500-
   East Central Minnesota

CITY           SKY/WX    TMP DP  RH WIND       PRES   REMARKS
PRINCETON      CLEAR     59  55  88 CALM      30.02S
MORA           CLEAR     55  54  94 CALM      30.03S
CAMBRIDGE      CLEAR     63  54  72 CALM      30.00S
RUSH CITY      PTCLDY    58  56  92 CALM      30.02S
MOOSE LAKE     PTCLDY    55  55 100 CALM      30.00S
HINCKLEY       FAIR      57  57 100 CALM      30.01S
CLOQUET        CLEAR     57  54  88 CALM      30.02S
MCGREGOR       PTCLDY    61  55  82 CALM      30.02R
$$
MNZ071>073-080-081-089-090-097-098-020500-
   Southwest Minnesota

CITY           SKY/WX    TMP DP  RH WIND       PRES   REMARKS
MONTEVIDEO     CLEAR     57  54  88 S5        30.02R
GRANITE FALLS  MOCLDY    61  54  79 CALM      30.03R
CANBY          CLEAR     58  53  83 SE5       30.01S
MARSHALL       CLEAR     63  50  63 SE6       29.99S
REDWOOD FALLS  FAIR      61  52  72 E3        30.01R
OLIVIA         CLEAR     59  50  72 E3        30.01R
PIPESTONE      CLEAR     63  52  67 SE6       30.00R
WINDOM         CLEAR     57  54  88 CALM      30.02R
WORTHINGTON    PTCLDY    59  52  77 E5        30.01R
JACKSON        PTCLDY    57  54  88 E6        30.02R
TRACY          CLEAR     60  56  86 SE6       30.01S
SLAYTON        CLEAR     60  56  85 CALM      30.02S
$$
MNZ065>067-074>077-082>085-091>093-020500-
   South Central Minnesota

CITY           SKY/WX    TMP DP  RH WIND       PRES   REMARKS
MANKATO        CLEAR     61  46  59 E6        30.01S
NEW ULM        CLEAR     61  54  77 E6        30.00F
ST JAMES       CLEAR     57  54  88 E3        30.02S
FAIRMONT       CLEAR     55  48  76 E5        30.00S
GLENCOE        CLEAR     58  54  86 CALM      30.01S
FARIBAULT      CLEAR     54  52  94 CALM      30.02F
OWATONNA       CLEAR     55  52  88 E3        30.02F
WASECA         CLEAR     54  50  87 CALM      30.03S
ALBERT LEA     CLEAR     55  52  88 CALM      30.02S
$$
MNZ078>079-086>088-094>096-020500-
   Southeast Minnesota

CITY           SKY/WX    TMP DP  RH WIND       PRES   REMARKS
ROCHESTER      CLEAR     57  51  80 NE5       30.03S
RED WING       CLEAR     57  55  94 CALM      30.01S
STANTON        CLEAR     55  54  94 CALM      30.01S
DODGE CENTER   CLEAR     55  52  88 NE3       30.02F
WINONA         CLEAR     55  55 100 CALM      30.02S
AUSTIN         CLEAR     54  52  94 CALM      30.02S
PRESTON        CLEAR     55  52  90 N3        30.03S
$$
ABBREVIATIONS USED IN REMARKS
   TC - TEMPERATURES IN CELSIUS
  WCI - WIND CHILL INDEX
   HX - HEAT INDEX
  VSB - VISIBILITY
$$



USA.gov is the U.S. government's official web portal to all federal, state and local government web resources and services.